Time,TemperatureF,DewpointF,PressureIn,WindDirection,WindDirectionDegrees,WindSpeedMPH,WindSpeedGustMPH,Humidity,HourlyPrecipIn,Conditions,Clouds,dailyrainin,SoftwareType,DateUTC
2013-11-06 00:12:00,22.0,22.0,-100.00,SSE,151,5.0,7.0,100,0.00,,,0.05,,2013-11-06 07:12:00,
2013-11-06 00:42:00,22.0,22.0,-100.00,SSE,148,5.0,8.0,100,0.00,,,0.05,,2013-11-06 07:42:00,
2013-11-06 01:12:00,22.0,22.0,-100.00,SSE,150,4.0,6.0,100,0.00,,,0.05,,2013-11-06 08:12:00,
2013-11-06 01:42:00,23.0,23.0,-100.00,SE,134,5.0,7.0,100,0.00,,,0.06,,2013-11-06 08:42:00,
2013-11-06 02:11:00,23.0,23.0,-100.00,SSE,151,4.0,7.0,100,0.00,,,0.06,,2013-11-06 09:11:00,
2013-11-06 02:43:00,23.0,23.0,-100.00,SE,143,4.0,7.0,100,0.00,,,0.06,,2013-11-06 09:43:00,
2013-11-06 03:12:00,23.0,23.0,-100.00,SE,138,5.0,8.0,100,0.00,,,0.06,,2013-11-06 10:12:00,
2013-11-06 03:42:00,23.0,23.0,-100.00,SE,134,5.0,7.0,100,0.00,,,0.07,,2013-11-06 10:42:00,
2013-11-06 04:12:00,23.0,23.0,-100.00,East,99,2.0,4.0,100,0.00,,,0.07,,2013-11-06 11:12:00,
2013-11-06 04:42:00,25.0,25.0,-100.00,SE,145,4.0,7.0,100,0.01,,,0.07,,2013-11-06 11:42:00,
2013-11-06 05:12:00,24.0,24.0,-100.00,SE,131,4.0,7.0,100,0.00,,,0.07,,2013-11-06 12:12:00,
2013-11-06 05:42:00,23.0,23.0,-100.00,SE,124,5.0,6.0,100,0.00,,,0.08,,2013-11-06 12:42:00,
2013-11-06 06:12:00,25.0,25.0,-100.00,SE,133,1.0,2.0,100,0.01,,,0.08,,2013-11-06 13:12:00,
2013-11-06 06:42:00,25.0,25.0,-100.00,ESE,110,4.0,5.0,100,0.02,,,0.09,,2013-11-06 13:42:00,
2013-11-06 07:11:00,26.0,26.0,-100.00,SW,216,6.0,13.0,100,0.00,,,0.10,,2013-11-06 14:11:00,
2013-11-06 07:42:00,26.0,26.0,-100.00,West,268,1.0,3.0,100,0.00,,,0.11,,2013-11-06 14:42:00,
2013-11-06 08:11:00,26.0,26.0,-100.00,SE,126,2.0,3.0,100,0.00,,,0.11,,2013-11-06 15:11:00,
2013-11-06 08:43:00,26.0,26.0,-100.00,ENE,68,3.0,5.0,100,0.00,,,0.11,,2013-11-06 15:43:00,
2013-11-06 09:12:00,27.0,26.0,-100.00,NNE,21,2.0,4.0,99,0.00,,,0.11,,2013-11-06 16:12:00,
2013-11-06 09:43:00,27.0,27.0,-100.00,East,95,2.0,2.0,100,0.00,,,0.12,,2013-11-06 16:43:00,
2013-11-06 10:13:00,28.0,27.0,-100.00,ESE,123,3.0,7.0,98,0.00,,,0.12,,2013-11-06 17:13:00,
2013-11-06 10:43:00,28.0,27.0,-100.00,SE,134,2.0,6.0,96,0.00,,,0.12,,2013-11-06 17:43:00,
2013-11-06 11:12:00,29.0,27.0,-100.00,South,171,2.0,5.0,94,0.00,,,0.12,,2013-11-06 18:12:00,
2013-11-06 11:42:00,30.0,28.0,-100.00,WNW,302,4.0,9.0,92,0.00,,,0.12,,2013-11-06 18:42:00,
2013-11-06 12:11:00,30.0,28.0,-100.00,WSW,248,2.0,4.0,92,0.00,,,0.12,,2013-11-06 19:11:00,
2013-11-06 12:30:00,33.0,29.0,-100.00,WSW,257,2.0,4.0,85,0.00,,,0.12,,2013-11-06 19:30:00,
2013-11-06 12:42:00,32.0,27.0,-100.00,WSW,256,8.0,14.0,82,0.00,,,0.12,,2013-11-06 19:42:00,
2013-11-06 13:12:00,33.0,29.0,-100.00,WSW,257,2.0,4.0,85,0.00,,,0.12,,2013-11-06 20:12:00,
2013-11-06 13:22:00,33.0,29.0,-100.00,WSW,257,2.0,4.0,85,0.00,,,0.12,,2013-11-06 20:22:00,
2013-11-06 13:52:00,32.0,28.0,-100.00,SSW,196,1.0,4.0,86,0.00,,,0.12,,2013-11-06 20:52:00,
2013-11-06 14:02:00,32.0,28.0,-100.00,SSW,196,1.0,4.0,86,0.00,,,0.12,,2013-11-06 21:02:00,
2013-11-06 14:21:00,32.0,28.0,-100.00,WSW,241,2.0,5.0,85,0.00,,,0.12,,2013-11-06 21:21:00,
2013-11-06 14:33:00,32.0,28.0,-100.00,WSW,241,2.0,5.0,85,0.00,,,0.12,,2013-11-06 21:33:00,
2013-11-06 14:54:00,32.0,28.0,-100.00,SSE,148,2.0,4.0,84,0.00,,,0.12,,2013-11-06 21:54:00,
2013-11-06 15:04:00,32.0,28.0,-100.00,SSE,148,2.0,4.0,84,0.00,,,0.12,,2013-11-06 22:04:00,
2013-11-06 15:23:00,33.0,28.0,-100.00,South,186,4.0,7.0,81,0.00,,,0.11,,2013-11-06 22:23:00,
2013-11-06 15:33:00,33.0,28.0,-100.00,South,186,4.0,7.0,81,0.00,,,0.11,,2013-11-06 22:33:00,
2013-11-06 15:53:00,32.0,28.0,-100.00,SW,236,2.0,4.0,86,0.00,,,0.11,,2013-11-06 22:53:00,
2013-11-06 16:02:00,32.0,28.0,-100.00,SW,236,2.0,4.0,86,0.00,,,0.11,,2013-11-06 23:02:00,
2013-11-06 16:22:00,32.0,27.0,-100.00,South,182,2.0,5.0,79,0.00,,,0.11,,2013-11-06 23:22:00,
2013-11-06 16:33:00,32.0,27.0,-100.00,South,182,2.0,5.0,79,0.00,,,0.11,,2013-11-06 23:33:00,
2013-11-06 16:53:00,32.0,27.0,-100.00,East,85,2.0,4.0,79,0.00,,,0.11,,2013-11-06 23:53:00,
2013-11-06 17:02:00,32.0,27.0,-100.00,East,85,2.0,4.0,79,0.00,,,0.11,,2013-11-07 00:02:00,
2013-11-06 17:22:00,31.0,27.0,-100.00,SE,131,0.0,2.0,85,0.00,,,0.11,,2013-11-07 00:22:00,
2013-11-06 17:32:00,31.0,27.0,-100.00,SE,131,0.0,2.0,85,0.00,,,0.11,,2013-11-07 00:32:00,
2013-11-06 17:52:00,30.0,29.0,-100.00,SSE,160,2.0,3.0,93,0.00,,,0.11,,2013-11-07 00:52:00,
2013-11-06 18:01:00,30.0,29.0,-100.00,SSE,160,2.0,3.0,93,0.00,,,0.11,,2013-11-07 01:01:00,
2013-11-06 18:22:00,30.0,29.0,-100.00,ESE,123,4.0,6.0,96,0.00,,,0.11,,2013-11-07 01:22:00,
2013-11-06 18:32:00,30.0,29.0,-100.00,ESE,123,4.0,6.0,96,0.00,,,0.11,,2013-11-07 01:32:00,
2013-11-06 18:52:00,30.0,29.0,-100.00,SE,130,5.0,7.0,96,0.00,,,0.11,,2013-11-07 01:52:00,
2013-11-06 19:01:00,30.0,29.0,-100.00,SE,130,5.0,7.0,96,0.00,,,0.11,,2013-11-07 02:01:00,
2013-11-06 19:22:00,31.0,29.0,-100.00,SE,124,5.0,7.0,95,0.00,,,0.11,,2013-11-07 02:22:00,
2013-11-06 19:32:00,31.0,29.0,-100.00,SE,124,5.0,7.0,95,0.00,,,0.11,,2013-11-07 02:32:00,
2013-11-06 19:42:00,31.0,29.0,-100.00,SE,124,5.0,7.0,95,0.00,,,0.11,,2013-11-07 02:42:00,
2013-11-06 20:21:00,31.0,29.0,-100.00,ESE,123,2.0,3.0,92,0.00,,,0.11,,2013-11-07 03:21:00,
2013-11-06 20:32:00,31.0,29.0,-100.00,ESE,123,2.0,3.0,92,0.00,,,0.11,,2013-11-07 03:32:00,
2013-11-06 20:55:00,30.0,29.0,-100.00,East,79,2.0,4.0,96,0.00,,,0.11,,2013-11-07 03:55:00,
2013-11-06 21:04:00,30.0,29.0,-100.00,East,79,2.0,4.0,96,0.00,,,0.11,,2013-11-07 04:04:00,
2013-11-06 21:24:00,29.0,28.0,-100.00,SE,145,3.0,4.0,98,0.00,,,0.11,,2013-11-07 04:24:00,
2013-11-06 21:34:00,29.0,28.0,-100.00,SE,145,3.0,4.0,98,0.00,,,0.11,,2013-11-07 04:34:00,
2013-11-06 21:53:00,29.0,28.0,-100.00,SE,138,3.0,4.0,99,0.00,,,0.11,,2013-11-07 04:53:00,
2013-11-06 22:03:00,29.0,28.0,-100.00,SE,138,3.0,4.0,99,0.00,,,0.11,,2013-11-07 05:03:00,
2013-11-06 22:23:00,29.0,28.0,-100.00,South,181,2.0,3.0,97,0.00,,,0.11,,2013-11-07 05:23:00,
2013-11-06 22:34:00,29.0,28.0,-100.00,South,181,2.0,3.0,97,0.00,,,0.11,,2013-11-07 05:34:00,
2013-11-06 22:54:00,30.0,29.0,-100.00,SE,141,2.0,5.0,95,0.00,,,0.11,,2013-11-07 05:54:00,
2013-11-06 23:03:00,30.0,29.0,-100.00,SE,141,2.0,5.0,95,0.00,,,0.11,,2013-11-07 06:03:00,
2013-11-06 23:23:00,30.0,29.0,-100.00,SSE,152,2.0,3.0,96,0.00,,,0.09,,2013-11-07 06:23:00,
2013-11-06 23:32:00,30.0,29.0,-100.00,SSE,152,2.0,3.0,96,0.00,,,0.09,,2013-11-07 06:32:00,
2013-11-06 23:52:00,30.0,29.0,-100.00,South,169,4.0,7.0,95,0.00,,,0.09,,2013-11-07 06:52:00,